Location: Appeville
(49.3218°N, 1.3427°W)
Time: 06:48:12
(UTC+00:00)

CZ-4 R/B - Pass Details

Date: 08 December 2019
Orbit: 532 x 598 km, 97.7° (Epoch: 19 January)

Event Time Altitude Azimuth Distance (km) Brightness Sun altitude
Rises 06:15:03 0° 29° (NNE) 2,695 5.0 -14.2°
Reaches altitude 10° 06:17:54 10° 53° (NE) 1,803 4.4 -13.8°
Maximum altitude 06:20:16 16° 91° (E) 1,486 4.6 -13.4°
Drops below altitude 10° 06:22:39 10° 128° (SE) 1,808 5.2 -13.0°
Sets 06:25:31 0° 152° (SSE) 2,706 5.7 -12.6°
